DateTimeUTC,F1_A11,F1_S11,BsB_S11,BsG_S11,BsR_S11,BbsB_S11,BbsG_S11,BbsR_S11,BaB_A11,BaG_A11,BaR_A11,Tu_S11,T_S11,Uu_S11,U_S11,P_S11,T1_A11
2021-08-01T04:00:00Z,00000200,20000000,,,,,,,-000.03,0000.13,-000.21,18.4,25.2,10.3,06.8,0679.2,31.0
2021-08-01T04:01:00Z,00000200,20000000,,,,,,,0000.05,-000.19,0000.28,18.4,25.2,10.3,06.8,0679.3,31.0
2021-08-01T04:02:00Z,00000200,20000000,,,,,,,0000.45,-000.11,-000.11,18.4,25.2,10.3,06.8,0679.3,31.0
2021-08-01T04:03:00Z,00000200,60000000,,,,,,,0001.09,0001.29,0000.57,18.4,25.2,10.3,06.8,0679.3,31.0
2021-08-01T04:04:00Z,00000200,40000000,0005.33,0003.60,0002.42,0000.93,0000.75,0000.55,0000.84,0001.05,0001.06,18.7,25.1,10.1,06.9,0680.2,31.0
2021-08-01T04:05:00Z,00000200,00000000,0006.17,0003.71,0002.17,0001.07,0000.70,0000.47,0001.59,0001.36,0001.03,18.8,25.1,10.2,06.9,0680.3,31.0
2021-08-01T04:06:00Z,00000200,00000000,0005.51,0003.61,0002.36,0000.66,0000.64,0000.28,0001.63,0001.55,0000.87,18.8,25.0,10.2,06.9,0680.2,31.0
2021-08-01T04:07:00Z,00000200,00000000,0005.06,0003.77,0002.43,0001.16,0000.67,0000.75,0001.11,0000.83,0001.29,18.8,25.1,10.1,06.9,0680.2,31.0
2021-08-01T04:08:00Z,00000200,00000000,0005.83,0003.68,0002.18,0000.87,0000.92,0000.28,0001.24,0001.17,0000.53,18.8,25.1,10.1,06.9,0680.3,31.0
2021-08-01T04:09:00Z,00000200,00000000,0005.28,0003.71,0002.51,-000.12,0000.91,0000.38,0001.28,0000.86,0000.93,18.8,25.1,10.2,06.9,0680.3,31.0
2021-08-01T04:10:00Z,00000200,00000000,0004.96,0003.56,0002.47,0000.87,0000.75,0000.36,0001.16,0001.28,0000.85,18.8,25.1,10.1,06.9,0680.3,31.0
2021-08-01T04:11:00Z,00000200,00000000,0005.09,0003.52,0002.28,0000.97,0000.78,0000.60,0001.53,0001.57,0001.07,18.8,25.0,10.1,06.9,0680.3,31.0
2021-08-01T04:12:00Z,00000200,00000000,0005.21,0003.94,0002.13,0001.02,0000.57,0000.27,0001.27,0001.41,0001.08,18.7,25.0,10.2,07.0,0680.3,31.0
2021-08-01T04:13:00Z,00000200,00000000,0005.56,0003.85,0002.45,0000.61,0000.75,0000.62,0001.39,0001.23,0000.67,18.7,25.0,10.2,06.9,0680.2,31.0
2021-08-01T04:14:00Z,00000200,00000000,0005.72,0003.80,0002.55,0000.81,0000.84,0000.66,0001.62,0001.30,0001.31,18.7,25.0,10.2,07.0,0680.2,31.0
2021-08-01T04:15:00Z,00000200,00000000,0005.53,0003.45,0002.39,0001.04,0000.85,0000.30,0001.41,0000.86,0000.80,18.7,25.0,10.1,06.9,0680.2,31.0
2021-08-01T04:16:00Z,00000200,00000000,0005.85,0003.50,0002.40,0001.28,0000.45,0000.65,0001.41,0001.44,0000.95,18.7,25.0,10.1,06.9,0680.2,31.0
2021-08-01T04:17:00Z,00000200,00000000,0005.58,0003.66,0002.20,0000.86,0000.63,0000.36,0001.12,0001.33,0000.97,18.7,25.0,10.2,07.0,0680.2,31.0
2021-08-01T04:18:00Z,00000200,00000000,0005.57,0003.27,0002.34,0001.28,0000.74,0000.38,0001.27,0001.08,0000.87,18.8,25.0,10.2,07.0,0680.2,31.0
2021-08-01T04:19:00Z,00000200,00000000,0004.94,0003.65,0002.10,0000.68,0000.58,0000.59,0001.17,0000.96,0000.69,18.8,25.0,10.2,06.9,0680.2,31.0
2021-08-01T04:20:00Z,00000200,00000000,0005.05,0003.56,0002.22,0000.77,0000.49,0000.29,0001.45,0001.27,0001.06,18.8,25.0,10.2,07.0,0680.2,31.0
2021-08-01T04:21:00Z,00000200,00000000,0005.87,0003.28,0002.23,0001.31,0000.41,0000.07,0001.30,0001.49,0000.98,18.8,25.0,10.2,07.0,0680.2,31.0
2021-08-01T04:22:00Z,00000200,00000000,0005.99,0003.81,0001.84,0001.14,0000.76,0000.10,0001.61,0000.90,0000.65,18.8,25.1,10.1,06.9,0680.2,31.0
2021-08-01T04:23:00Z,00000200,00000000,0006.09,0003.60,0002.34,0000.92,0000.62,0000.50,0001.14,0001.23,0001.04,18.8,25.1,10.1,06.9,0680.2,31.0
2021-08-01T04:24:00Z,00000200,00000000,0005.73,0003.27,0001.94,0000.89,0000.61,0000.26,0001.31,0001.42,0000.53,18.8,25.0,10.2,06.9,0680.2,31.0
2021-08-01T04:25:00Z,00000200,00000000,0004.82,0002.79,0001.68,0000.95,0000.65,0000.07,0000.67,0000.84,0001.52,18.8,25.0,10.2,06.9,0680.2,31.0
2021-08-01T04:26:00Z,00000200,00000000,0005.37,0003.47,0002.04,0001.07,0000.56,0000.48,0001.74,0001.28,0000.71,18.8,25.0,10.2,07.0,0680.2,31.0
2021-08-01T04:27:00Z,00000200,00000000,0005.62,0004.01,0002.54,0000.77,0000.54,0000.25,0001.24,0001.17,0000.87,18.8,25.0,10.2,07.0,0680.2,31.0
2021-08-01T04:28:00Z,00000200,00000000,0006.10,0003.85,0002.24,0000.88,0000.57,0000.41,0001.34,0001.16,0000.53,18.8,25.0,10.3,07.0,0680.1,31.0
2021-08-01T04:29:00Z,00000200,00000000,0005.17,0003.68,0002.10,0001.06,0000.73,0000.53,0001.60,0001.31,0001.34,18.8,25.0,10.2,07.0,0680.1,31.0
2021-08-01T04:30:00Z,00000200,00000000,0005.52,0003.40,0002.39,0001.02,0000.57,0000.55,0001.34,0001.35,0000.68,18.8,25.0,10.1,06.9,0680.1,31.0
2021-08-01T04:31:00Z,00000200,00000000,0005.30,0003.28,0002.33,0000.50,0000.53,0000.30,0000.94,0000.95,0000.90,18.7,25.0,10.1,06.9,0680.2,31.0
2021-08-01T04:32:00Z,00000200,00000000,0005.77,0003.20,0002.40,0001.01,0000.69,0000.51,0001.58,0001.30,0000.98,18.7,25.0,10.1,06.9,0680.2,31.0
2021-08-01T04:33:00Z,00000200,00000000,0005.68,0003.74,0002.25,0000.76,0000.91,0000.25,0000.83,0001.04,0000.69,18.7,25.0,10.2,06.9,0680.2,31.0
2021-08-01T04:34:00Z,00000200,00000000,0006.29,0003.22,0002.26,0001.04,0000.69,0000.36,0001.31,0001.25,0000.69,18.7,25.0,10.1,06.9,0680.1,31.0
2021-08-01T04:35:00Z,00000200,00000000,0005.40,0003.07,0002.04,0001.25,0000.47,0000.24,0001.31,0001.10,0001.07,18.7,25.0,10.0,06.8,0680.1,31.0
2021-08-01T04:36:00Z,00000200,00000000,0005.28,0003.14,0001.61,0000.32,0000.39,0000.37,0001.29,0000.88,0000.67,18.7,25.0,10.0,06.8,0680.1,31.0
2021-08-01T04:37:00Z,00000200,00000000,0005.37,0003.31,0002.11,0000.52,0000.56,0000.43,0000.81,0001.06,0000.69,18.7,25.0,10.0,06.8,0680.1,31.0
2021-08-01T04:38:00Z,00000200,00000000,0003.74,0002.58,0001.64,0001.05,0000.45,0000.31,0001.01,0000.69,0000.76,18.7,25.0,10.1,06.9,0680.1,31.0
2021-08-01T04:39:00Z,00000200,00000000,0003.80,0002.57,0001.52,0000.93,0000.69,0000.35,0001.07,0000.61,0000.83,18.7,25.0,10.0,06.8,0680.1,31.0
2021-08-01T04:40:00Z,00000200,00000000,0004.91,0002.64,0001.80,0001.05,0000.32,0000.28,0000.83,0001.38,0000.57,18.6,24.9,10.0,06.8,0680.1,31.0
2021-08-01T04:41:00Z,00000200,00000000,0004.06,0002.64,0001.75,0000.21,0000.74,0000.38,0001.22,0000.57,0000.83,18.6,24.9,10.0,06.8,0680.1,31.0
2021-08-01T04:42:00Z,00000200,00000000,0003.44,0002.39,0001.17,0001.09,0000.62,0000.38,0000.84,0001.01,0000.56,18.6,24.9,10.1,06.9,0680.1,31.0
2021-08-01T04:43:00Z,00000200,00000000,0003.29,0002.08,0001.26,0001.13,0000.33,0000.20,0000.96,0000.59,0000.31,18.6,24.9,10.0,06.8,0680.1,31.0
2021-08-01T04:44:00Z,00000200,00000000,0004.30,0001.99,0001.54,0000.68,0000.59,0000.47,0000.82,0001.18,0001.00,18.6,24.9,09.9,06.7,0680.1,31.0
2021-08-01T04:45:00Z,00000200,00000000,0004.22,0002.08,0001.37,0000.67,0000.51,0000.54,0001.04,0000.49,0000.56,18.6,24.9,09.9,06.7,0680.1,31.0
2021-08-01T04:46:00Z,00000200,00000000,0003.29,0001.83,0001.13,0000.97,0000.40,0000.05,0000.67,0000.80,0000.48,18.6,24.9,10.0,06.8,0680.1,31.0
2021-08-01T04:47:00Z,00000200,00000000,0004.75,0002.42,0001.55,0000.54,0000.30,0000.40,0001.26,0001.37,0000.89,18.6,24.9,09.9,06.8,0680.1,31.0
2021-08-01T04:48:00Z,00000200,00000000,0003.50,0002.38,0001.24,0000.81,0000.16,0000.19,0000.50,0000.68,0000.63,18.7,24.9,09.8,06.7,0680.1,31.0
2021-08-01T04:49:00Z,00000200,00000000,0004.23,0002.36,0001.16,0000.63,0000.68,0000.65,0000.93,0000.43,0000.29,18.8,25.0,09.8,06.7,0680.1,31.0
2021-08-01T04:50:00Z,00000200,00000000,0003.99,0002.30,0001.53,0000.65,0000.55,0000.52,0001.15,0001.22,0000.68,18.8,25.0,09.9,06.8,0680.1,31.0
2021-08-01T04:51:00Z,00000200,00000000,0003.99,0002.18,0001.38,0001.43,0000.61,0000.29,0000.55,0000.47,0000.18,18.8,25.0,09.9,06.8,0680.1,31.0
2021-08-01T04:52:00Z,00000200,00000000,0003.18,0002.37,0001.58,0001.01,0000.52,0000.39,0000.95,0000.66,0000.78,18.8,25.0,09.8,06.7,0680.1,31.0
2021-08-01T04:53:00Z,00000200,00000000,0003.59,0001.56,0000.91,0000.15,0000.24,0000.64,0000.67,0000.73,0000.61,18.8,25.0,09.9,06.8,0680.1,31.0
2021-08-01T04:54:00Z,00000200,00000000,0003.34,0002.10,0001.07,0000.62,0000.57,0000.15,0000.72,0000.64,0000.58,18.8,25.0,09.8,06.7,0680.1,31.0
2021-08-01T04:55:00Z,00000200,00000000,0004.79,0002.54,0001.73,0000.94,0000.36,0000.52,0000.82,0000.99,0000.57,18.8,25.0,09.8,06.7,0680.1,31.0
2021-08-01T04:56:00Z,00000200,00000000,0004.41,0002.95,0001.42,0000.96,0000.82,-000.29,0000.99,0000.43,0000.62,18.8,25.0,09.8,06.7,0680.1,31.0
2021-08-01T04:57:00Z,00000200,40000000,,,,,,,0000.42,0000.72,0000.23,18.8,25.0,09.9,06.8,0680.3,31.0
2021-08-01T04:58:00Z,00000200,60000000,,,,,,,0000.18,-000.18,-000.03,18.5,25.1,10.0,06.6,0679.1,31.0
2021-08-01T04:59:00Z,00000200,20000000,,,,,,,-000.42,0000.08,0000.20,18.5,25.2,10.0,06.6,0679.1,31.0
